Miscellaneous Local Product
Issued by NWS Hastings, NE

Home | Current Version | Previous Version | Text Only | Print | Product List | Glossary Off
Versions: 1 2 3 4 5 6 7 8 9 10 11 12 13 14 15 16 17 18 19 20 21 22 23 24 25 26 27 28 29 30 31 32 33 34 35 36 37 38 39 40 41 42 43 44 45 46 47 48 49 50

000
AXUS43 KGID 011002
MISGRI

GID CWA HOURLY WEATHER ROUNDUP
NATIONAL WEATHER SERVICE HASTINGS NE
500 AM CDT FRI AUG 01 2014

NOTE: "FAIR" INDICATES FEW OR NO CLOUDS BELOW 12,000 FEET WITH NO
SIGNIFICANT WEATHER AND/OR OBSTRUCTIONS TO VISIBILITY.

...SOUTH CENTRAL NEBRASKA...

CITY           SKY/WX    TMP DP  RH WIND       PRES   REMARKS
GRAND ISLAND   CLEAR     58  56  93 N6        30.06S
HASTINGS       CLEAR     59  54  83 N3        30.06R
KEARNEY        CLEAR     61  57  88 NW6       30.07S
ORD            CLEAR     57  55  93 NW5       30.07S
YORK           CLEAR     55  55 100 N6        30.04S
AURORA         CLEAR     59  59 100 N5        30.05S
LEXINGTON      CLEAR     56  55  94 W5        30.10S
HOLDREGE       CLEAR     58  57  95 W3        30.08S FOG
HEBRON         CLEAR     60  55  84 CALM      30.03R

...NEBRASKA PANHANDLE...

CITY           SKY/WX    TMP DP  RH WIND       PRES   REMARKS
CHADRON        CLEAR     58  46  64 SW6       30.13S
ALLIANCE       CLEAR     49  44  83 W5        30.17F
SCOTTSBLUFF    CLEAR     56  50  80 NE3       30.18F
SIDNEY         CLEAR     51  45  79 SW7       30.21S

...WESTERN AND NORTH CENTRAL NEBRASKA...

CITY           SKY/WX    TMP DP  RH WIND       PRES   REMARKS
VALENTINE      CLEAR     59  57  93 SE3       30.09F
AINSWORTH      CLEAR     58  58 100 CALM      30.10S FOG
ONEILL         FOG       60  59  98 CALM      30.09S VSB 3/4
BROKEN BOW     CLEAR     55  54  96 N6        30.09S
IMPERIAL       CLEAR     61  53  75 NW3       30.15S
NORTH PLATTE   CLEAR     52  50  93 NW3       30.13R
MCCOOK         CLEAR     57  55  93 W6        30.12S

...EASTERN NEBRASKA...

CITY           SKY/WX    TMP DP  RH WIND       PRES   REMARKS
NORFOLK        CLEAR     56  55  97 CALM      30.06S FOG
SO SIOUX CITY  CLEAR     55  54  96 CALM      30.06S FOG
TEKAMAH        CLEAR     60  57  89 NW3       30.05S
ALBION         CLEAR     56  55  95 CALM      30.08R FOG
OMAHA EPPLEY   CLOUDY    67  60  78 SE7       30.05S
OFFUTT AFB     CLOUDY    65  65  99 E9        30.04S
MILLARD        PTCLDY    67  61  81 SE8       30.04S
LINCOLN        CLEAR     67  58  72 SE12      30.03S
NEBRASKA CITY  MOCLDY    65  60  84 SE7       30.05F
BEATRICE       CLEAR     65  59  80 SE8       30.02F
FALLS CITY     CLOUDY    66  62  87 SW3       30.06R

...NORTHERN KANSAS...

CITY           SKY/WX    TMP DP  RH WIND       PRES   REMARKS
GOODLAND       CLEAR     58  53  84 N6        30.18R
HILL CITY      CLEAR     59  52  77 CALM      30.07S
NORTON         SUNNY     61  54  77 NW8       30.07S
PHILLIPSBURG   CLEAR     63  61  94 NW6       30.05S
SMITH CENTER   CLEAR     63  55  77 CALM      30.05S
HAYS           CLEAR     61  54  77 W7        30.06S
RUSSELL        CLEAR     63  58  83 SW8       30.04S
CONCORDIA      CLEAR     65  56  72 W7        30.02S
SALINA         CLEAR     65  55  70 S9        30.04F
TOPEKA         MOCLDY    66  63  90 CALM      30.07F



USA.gov is the U.S. government's official web portal to all federal, state and local government web resources and services.